Year,Month,Day,Hour,Minute,Value (Times are PST for temperature in C)
2018,07,03,00,00,11.10
2018,07,03,00,01,11.10
2018,07,03,00,02,11.10
2018,07,03,00,03,11.10
2018,07,03,00,04,11.10
2018,07,03,00,05,11.00
2018,07,03,00,06,11.00
2018,07,03,00,07,10.90
2018,07,03,00,08,10.90
2018,07,03,00,09,10.80
2018,07,03,00,10,10.80
2018,07,03,00,11,10.80
2018,07,03,00,12,10.80
2018,07,03,00,13,10.70
2018,07,03,00,14,10.70
2018,07,03,00,15,10.70
2018,07,03,00,16,10.70
2018,07,03,00,17,10.60
2018,07,03,00,18,10.60
2018,07,03,00,19,10.60
2018,07,03,00,20,10.50
2018,07,03,00,21,10.50
2018,07,03,00,22,10.40
2018,07,03,00,23,10.40
2018,07,03,00,24,10.40
2018,07,03,00,25,10.30
2018,07,03,00,26,10.30
2018,07,03,00,27,10.30
2018,07,03,00,28,10.30
2018,07,03,00,29,10.20
2018,07,03,00,30,10.20
2018,07,03,00,31,10.20
2018,07,03,00,32,10.20
2018,07,03,00,33,10.10
2018,07,03,00,34,10.10
2018,07,03,00,35,10.10
2018,07,03,00,36,10.10
2018,07,03,00,37,10.00
2018,07,03,00,38,10.00
2018,07,03,00,39,9.90
2018,07,03,00,40,9.90
2018,07,03,00,41,9.90
2018,07,03,00,42,9.90
2018,07,03,00,43,9.90
2018,07,03,00,44,9.80
2018,07,03,00,45,9.80
2018,07,03,00,46,9.80
2018,07,03,00,47,9.80
2018,07,03,00,48,9.80
2018,07,03,00,49,9.80
2018,07,03,00,50,9.80
2018,07,03,00,51,9.80
2018,07,03,00,52,9.80
2018,07,03,00,53,9.70
2018,07,03,00,54,9.70
2018,07,03,00,55,9.70
2018,07,03,00,56,9.70
2018,07,03,00,57,9.70
2018,07,03,00,58,9.70
2018,07,03,00,59,9.70
2018,07,03,01,00,9.60
2018,07,03,01,01,9.60
2018,07,03,01,02,9.60
2018,07,03,01,03,9.60
2018,07,03,01,04,9.60
2018,07,03,01,05,9.50
2018,07,03,01,06,9.50
2018,07,03,01,07,9.50
2018,07,03,01,08,9.50
2018,07,03,01,09,9.40
2018,07,03,01,10,9.40
2018,07,03,01,11,9.40
2018,07,03,01,12,9.40
2018,07,03,01,13,9.40
2018,07,03,01,14,9.40
2018,07,03,01,15,9.40
2018,07,03,01,16,9.50
2018,07,03,01,17,9.50
2018,07,03,01,18,9.50
2018,07,03,01,19,9.40
2018,07,03,01,20,9.40
2018,07,03,01,21,9.40
2018,07,03,01,22,9.40
2018,07,03,01,23,9.40
2018,07,03,01,24,9.40
2018,07,03,01,25,9.30
2018,07,03,01,26,9.30
2018,07,03,01,27,9.30
2018,07,03,01,28,9.30
2018,07,03,01,29,9.20
2018,07,03,01,30,9.20
2018,07,03,01,31,9.20
2018,07,03,01,32,9.20
2018,07,03,01,33,9.20
2018,07,03,01,34,9.20
2018,07,03,01,35,9.20
2018,07,03,01,36,9.20
2018,07,03,01,37,9.20
2018,07,03,01,38,9.20
2018,07,03,01,39,9.20
2018,07,03,01,40,9.20
2018,07,03,01,41,9.20
2018,07,03,01,42,9.20
2018,07,03,01,43,9.20
2018,07,03,01,44,9.20
2018,07,03,01,45,9.20
2018,07,03,01,46,9.20
2018,07,03,01,47,9.20
2018,07,03,01,48,9.20
2018,07,03,01,49,9.20
2018,07,03,01,50,9.20
2018,07,03,01,51,9.20
2018,07,03,01,52,9.10
2018,07,03,01,53,9.10
2018,07,03,01,54,9.10
2018,07,03,01,55,9.10
2018,07,03,01,56,9.10
2018,07,03,01,57,9.10
2018,07,03,01,58,9.10
2018,07,03,01,59,9.10
2018,07,03,02,00,9.10
2018,07,03,02,01,9.10
2018,07,03,02,02,9.10
2018,07,03,02,03,9.10
2018,07,03,02,04,9.10
2018,07,03,02,05,9.10
2018,07,03,02,06,9.10
2018,07,03,02,07,9.10
2018,07,03,02,08,9.00
2018,07,03,02,09,9.00
2018,07,03,02,10,9.00
2018,07,03,02,11,8.90
2018,07,03,02,12,8.90
2018,07,03,02,13,8.90
2018,07,03,02,14,8.90
2018,07,03,02,15,8.80
2018,07,03,02,16,8.80
2018,07,03,02,17,8.80
2018,07,03,02,18,8.80
2018,07,03,02,19,8.80
2018,07,03,02,20,8.70
2018,07,03,02,21,8.70
2018,07,03,02,22,8.70
2018,07,03,02,23,8.70
2018,07,03,02,24,8.70
2018,07,03,02,25,8.70
2018,07,03,02,26,8.70
2018,07,03,02,27,8.70
2018,07,03,02,28,8.70
2018,07,03,02,29,8.70
2018,07,03,02,30,8.70
2018,07,03,02,31,8.70
2018,07,03,02,32,8.70
2018,07,03,02,33,8.70
2018,07,03,02,34,8.70
2018,07,03,02,35,8.70
2018,07,03,02,36,8.70
2018,07,03,02,37,8.70
2018,07,03,02,38,8.70
2018,07,03,02,39,8.70
2018,07,03,02,40,8.70
2018,07,03,02,41,8.70
2018,07,03,02,42,8.60
2018,07,03,02,43,8.60
2018,07,03,02,44,8.60
2018,07,03,02,45,8.60
2018,07,03,02,46,8.50
2018,07,03,02,47,8.50
2018,07,03,02,48,8.50
2018,07,03,02,49,8.50
2018,07,03,02,50,8.50
2018,07,03,02,51,8.50
2018,07,03,02,52,8.50
2018,07,03,02,53,8.50
2018,07,03,02,54,8.50
2018,07,03,02,55,8.50
2018,07,03,02,56,8.40
2018,07,03,02,57,8.40
2018,07,03,02,58,8.40
2018,07,03,02,59,8.40
2018,07,03,03,00,8.40
2018,07,03,03,01,8.40
2018,07,03,03,02,8.40
2018,07,03,03,03,8.40
2018,07,03,03,04,8.30
2018,07,03,03,05,8.30
2018,07,03,03,06,8.30
2018,07,03,03,07,8.30
2018,07,03,03,08,8.30
2018,07,03,03,09,8.30
2018,07,03,03,10,8.40
2018,07,03,03,11,8.40
2018,07,03,03,12,8.40
2018,07,03,03,13,8.30
2018,07,03,03,14,8.30
2018,07,03,03,15,8.30
2018,07,03,03,16,8.30
2018,07,03,03,17,8.30
2018,07,03,03,18,8.30
2018,07,03,03,19,8.30
2018,07,03,03,20,8.30
2018,07,03,03,21,8.30
2018,07,03,03,22,8.30
2018,07,03,03,23,8.30
2018,07,03,03,24,8.30
2018,07,03,03,25,8.30
2018,07,03,03,26,8.30
2018,07,03,03,27,8.30
2018,07,03,03,28,8.40
2018,07,03,03,29,8.40
2018,07,03,03,30,8.40
2018,07,03,03,31,8.40
2018,07,03,03,32,8.30
2018,07,03,03,33,8.30
2018,07,03,03,34,8.30
2018,07,03,03,35,8.30
2018,07,03,03,36,8.30
2018,07,03,03,37,8.30
2018,07,03,03,38,8.30
2018,07,03,03,39,8.30
2018,07,03,03,40,8.30
2018,07,03,03,41,8.30
2018,07,03,03,42,8.30
2018,07,03,03,43,8.30
2018,07,03,03,44,8.30
2018,07,03,03,45,8.40
2018,07,03,03,46,8.40
2018,07,03,03,47,8.40
2018,07,03,03,48,8.40
2018,07,03,03,49,8.30
2018,07,03,03,50,8.30
2018,07,03,03,51,8.30
2018,07,03,03,52,8.30
2018,07,03,03,53,8.30
2018,07,03,03,54,8.30
2018,07,03,03,55,8.30
2018,07,03,03,56,8.20
2018,07,03,03,57,8.20
2018,07,03,03,58,8.20
2018,07,03,03,59,8.20
2018,07,03,04,00,8.20
2018,07,03,04,01,8.20
2018,07,03,04,02,8.20
2018,07,03,04,03,8.10
2018,07,03,04,04,8.10
2018,07,03,04,05,8.10
2018,07,03,04,06,8.10
2018,07,03,04,07,8.10
2018,07,03,04,08,8.00
2018,07,03,04,09,8.00
2018,07,03,04,10,8.00
2018,07,03,04,11,7.90
2018,07,03,04,12,7.90
2018,07,03,04,13,7.90
2018,07,03,04,14,7.90
2018,07,03,04,15,7.90
2018,07,03,04,16,7.80
2018,07,03,04,17,7.80
2018,07,03,04,18,7.80
2018,07,03,04,19,7.80
2018,07,03,04,20,7.80
2018,07,03,04,21,7.80
2018,07,03,04,22,7.80
2018,07,03,04,23,7.80
2018,07,03,04,24,7.80
2018,07,03,04,25,7.80
2018,07,03,04,26,7.80
2018,07,03,04,27,7.80
2018,07,03,04,28,7.80
2018,07,03,04,29,7.80
2018,07,03,04,30,7.80
2018,07,03,04,31,7.80
2018,07,03,04,32,7.80
2018,07,03,04,33,7.70
2018,07,03,04,34,7.70
2018,07,03,04,35,7.70
2018,07,03,04,36,7.70
2018,07,03,04,37,7.70
2018,07,03,04,38,7.70
2018,07,03,04,39,7.70
2018,07,03,04,40,7.70
2018,07,03,04,41,7.70
2018,07,03,04,42,7.70
2018,07,03,04,43,7.70
2018,07,03,04,44,7.70
2018,07,03,04,45,7.70
2018,07,03,04,46,7.70
2018,07,03,04,47,7.70
2018,07,03,04,48,7.80
2018,07,03,04,49,7.80
2018,07,03,04,50,7.80
2018,07,03,04,51,7.80
2018,07,03,04,52,7.70
2018,07,03,04,53,7.70
2018,07,03,04,54,7.70
2018,07,03,04,55,7.70
2018,07,03,04,56,7.70
2018,07,03,04,57,7.70
2018,07,03,04,58,7.70
2018,07,03,04,59,7.70
2018,07,03,05,00,7.70
2018,07,03,05,01,7.70
2018,07,03,05,02,7.70
2018,07,03,05,03,7.70
2018,07,03,05,04,7.70
2018,07,03,05,05,7.70
2018,07,03,05,06,7.70
2018,07,03,05,07,7.70
2018,07,03,05,08,7.70
2018,07,03,05,09,7.70
2018,07,03,05,10,7.60
2018,07,03,05,11,7.60
2018,07,03,05,12,7.60
2018,07,03,05,13,7.60
2018,07,03,05,14,7.60
2018,07,03,05,15,7.60
2018,07,03,05,16,7.60
2018,07,03,05,17,7.60
2018,07,03,05,18,7.60
2018,07,03,05,19,7.60
2018,07,03,05,20,7.60
2018,07,03,05,21,7.60
2018,07,03,05,22,7.60
2018,07,03,05,23,7.60
2018,07,03,05,24,7.60
2018,07,03,05,25,7.60
2018,07,03,05,26,7.60
2018,07,03,05,27,7.60
2018,07,03,05,28,7.60
2018,07,03,05,29,7.60
2018,07,03,05,30,7.60
2018,07,03,05,31,7.60
2018,07,03,05,32,7.60
2018,07,03,05,33,7.60
2018,07,03,05,34,7.60
2018,07,03,05,35,7.60
2018,07,03,05,36,7.60
2018,07,03,05,37,7.60
2018,07,03,05,38,7.60
2018,07,03,05,39,7.60
2018,07,03,05,40,7.50
2018,07,03,05,41,7.50
2018,07,03,05,42,7.50
2018,07,03,05,43,7.40
2018,07,03,05,44,7.40
2018,07,03,05,45,7.40
2018,07,03,05,46,7.40
2018,07,03,05,47,7.40
2018,07,03,05,48,7.40
2018,07,03,05,49,7.40
2018,07,03,05,50,7.40
2018,07,03,05,51,7.40
2018,07,03,05,52,7.40
2018,07,03,05,53,7.50
2018,07,03,05,54,7.50
2018,07,03,05,55,7.50
2018,07,03,05,56,7.50
2018,07,03,05,57,7.50
2018,07,03,05,58,7.50
2018,07,03,05,59,7.50
2018,07,03,06,00,7.60
2018,07,03,06,01,7.60
2018,07,03,06,02,7.60
2018,07,03,06,03,7.70
2018,07,03,06,04,7.70
2018,07,03,06,05,7.70
2018,07,03,06,06,7.70
2018,07,03,06,07,7.80
2018,07,03,06,08,7.80
2018,07,03,06,09,7.80
2018,07,03,06,10,7.90
2018,07,03,06,11,7.90
2018,07,03,06,12,7.90
2018,07,03,06,13,7.90
2018,07,03,06,14,7.90
2018,07,03,06,15,7.90
2018,07,03,06,16,7.90
2018,07,03,06,17,7.90
2018,07,03,06,18,7.90
2018,07,03,06,19,8.00
2018,07,03,06,20,8.00
2018,07,03,06,21,8.00
2018,07,03,06,22,8.00
2018,07,03,06,23,8.00
2018,07,03,06,24,8.00
2018,07,03,06,25,8.10
2018,07,03,06,26,8.10
2018,07,03,06,27,8.20
2018,07,03,06,28,8.20
2018,07,03,06,29,8.20
2018,07,03,06,30,8.20
2018,07,03,06,31,8.20
2018,07,03,06,32,8.20
2018,07,03,06,33,8.20
2018,07,03,06,34,8.20
2018,07,03,06,35,8.30
2018,07,03,06,36,8.30
2018,07,03,06,37,8.30
2018,07,03,06,38,8.30
2018,07,03,06,39,8.30
2018,07,03,06,40,8.40
2018,07,03,06,41,8.40
2018,07,03,06,42,8.50
2018,07,03,06,43,8.50
2018,07,03,06,44,8.60
2018,07,03,06,45,8.60
2018,07,03,06,46,8.60
2018,07,03,06,47,8.70
2018,07,03,06,48,8.70
2018,07,03,06,49,8.70
2018,07,03,06,50,8.70
2018,07,03,06,51,8.80
2018,07,03,06,52,8.80
2018,07,03,06,53,8.90
2018,07,03,06,54,8.90
2018,07,03,06,55,9.10
2018,07,03,06,56,9.20
2018,07,03,06,57,9.30
2018,07,03,06,58,9.30
2018,07,03,06,59,9.40
2018,07,03,07,00,9.60
2018,07,03,07,01,9.60
2018,07,03,07,02,9.70
2018,07,03,07,03,9.80
2018,07,03,07,04,9.90
2018,07,03,07,05,10.00
2018,07,03,07,06,10.00
2018,07,03,07,07,10.10
2018,07,03,07,08,10.10
2018,07,03,07,09,10.20
2018,07,03,07,10,10.20
2018,07,03,07,11,10.20
2018,07,03,07,12,10.20
2018,07,03,07,13,10.20
2018,07,03,07,14,10.20
2018,07,03,07,15,10.30
2018,07,03,07,16,10.30
2018,07,03,07,17,10.30
2018,07,03,07,18,10.40
2018,07,03,07,19,10.50
2018,07,03,07,20,10.60
2018,07,03,07,21,10.70
2018,07,03,07,22,10.80
2018,07,03,07,23,10.90
2018,07,03,07,24,10.90
2018,07,03,07,25,11.10
2018,07,03,07,26,11.20
2018,07,03,07,27,11.20
2018,07,03,07,28,11.30
2018,07,03,07,29,11.30
2018,07,03,07,30,11.40
2018,07,03,07,31,11.50
2018,07,03,07,32,11.60
2018,07,03,07,33,11.70
2018,07,03,07,34,11.80
2018,07,03,07,35,11.80
2018,07,03,07,36,11.90
2018,07,03,07,37,11.90
2018,07,03,07,38,12.00
2018,07,03,07,39,12.00
2018,07,03,07,40,12.10
2018,07,03,07,41,12.20
2018,07,03,07,42,12.30
2018,07,03,07,43,12.30
2018,07,03,07,44,12.40
2018,07,03,07,45,12.50
2018,07,03,07,46,12.50
2018,07,03,07,47,12.60
2018,07,03,07,48,12.60
2018,07,03,07,49,12.60
2018,07,03,07,50,12.70
2018,07,03,07,51,12.60
2018,07,03,07,52,12.60
2018,07,03,07,53,12.60
2018,07,03,07,54,12.70
2018,07,03,07,55,12.70
2018,07,03,07,56,12.60
2018,07,03,07,57,12.60
2018,07,03,07,58,12.50
2018,07,03,07,59,12.50
2018,07,03,08,00,12.50
2018,07,03,08,01,12.40
2018,07,03,08,02,12.40
2018,07,03,08,03,12.50
2018,07,03,08,04,12.50
2018,07,03,08,05,12.50
2018,07,03,08,06,12.50
2018,07,03,08,07,12.50
2018,07,03,08,08,12.50
2018,07,03,08,09,12.50
2018,07,03,08,10,12.50
2018,07,03,08,11,12.50
2018,07,03,08,12,12.50
2018,07,03,08,13,12.50
2018,07,03,08,14,12.50
2018,07,03,08,15,12.60
2018,07,03,08,16,12.60
2018,07,03,08,17,12.70
2018,07,03,08,18,12.70
2018,07,03,08,19,12.70
2018,07,03,08,20,12.80
2018,07,03,08,21,12.80
2018,07,03,08,22,12.80
2018,07,03,08,23,12.80
2018,07,03,08,24,12.80
2018,07,03,08,25,12.80
2018,07,03,08,26,12.80
2018,07,03,08,27,12.80
2018,07,03,08,28,12.90
2018,07,03,08,29,13.00
2018,07,03,08,30,13.00
2018,07,03,08,31,13.10
2018,07,03,08,32,13.20
2018,07,03,08,33,13.30
2018,07,03,08,34,13.40
2018,07,03,08,35,13.50
2018,07,03,08,36,13.60
2018,07,03,08,37,13.70
2018,07,03,08,38,13.80
2018,07,03,08,39,13.80
2018,07,03,08,40,13.90
2018,07,03,08,41,13.90
2018,07,03,08,42,13.80
2018,07,03,08,43,13.80
2018,07,03,08,44,13.80
2018,07,03,08,45,13.80
2018,07,03,08,46,13.70
2018,07,03,08,47,13.60
2018,07,03,08,48,13.60
2018,07,03,08,49,13.50
2018,07,03,08,50,13.40
2018,07,03,08,51,13.40
2018,07,03,08,52,13.40
2018,07,03,08,53,13.40
2018,07,03,08,54,13.40
2018,07,03,08,55,13.40
2018,07,03,08,56,13.40
2018,07,03,08,57,13.50
2018,07,03,08,58,13.40
2018,07,03,08,59,13.50
2018,07,03,09,00,13.50
2018,07,03,09,01,13.50
2018,07,03,09,02,13.60
2018,07,03,09,03,13.60
2018,07,03,09,04,13.60
2018,07,03,09,05,13.60
2018,07,03,09,06,13.50
2018,07,03,09,07,13.50
2018,07,03,09,08,13.40
2018,07,03,09,09,13.30
2018,07,03,09,10,13.30
2018,07,03,09,11,13.30
2018,07,03,09,12,13.30
2018,07,03,09,13,13.40
2018,07,03,09,14,13.40
2018,07,03,09,15,13.40
2018,07,03,09,16,13.50
2018,07,03,09,17,13.50
2018,07,03,09,18,13.50
2018,07,03,09,19,13.60
2018,07,03,09,20,13.60
2018,07,03,09,21,13.70
2018,07,03,09,22,13.70
2018,07,03,09,23,13.70
2018,07,03,09,24,13.70
2018,07,03,09,25,13.80
2018,07,03,09,26,13.90
2018,07,03,09,27,13.90
2018,07,03,09,28,13.90
2018,07,03,09,29,14.00
2018,07,03,09,30,14.00
2018,07,03,09,31,14.10
2018,07,03,09,32,14.10
2018,07,03,09,33,14.10
2018,07,03,09,34,14.10
2018,07,03,09,35,14.10
2018,07,03,09,36,14.10
2018,07,03,09,37,14.10
2018,07,03,09,38,14.10
2018,07,03,09,39,14.10
2018,07,03,09,40,14.10
2018,07,03,09,41,14.10
2018,07,03,09,42,14.10
2018,07,03,09,43,14.20
2018,07,03,09,44,14.20
2018,07,03,09,45,14.20
2018,07,03,09,46,14.10
2018,07,03,09,47,14.10
2018,07,03,09,48,14.00
2018,07,03,09,49,13.90
2018,07,03,09,50,13.90
2018,07,03,09,51,13.90
2018,07,03,09,52,13.90
2018,07,03,09,53,13.90
2018,07,03,09,54,13.80
2018,07,03,09,55,13.80
2018,07,03,09,56,13.80
2018,07,03,09,57,13.80
2018,07,03,09,58,13.80
2018,07,03,09,59,13.80
2018,07,03,10,00,13.90
2018,07,03,10,01,13.90
2018,07,03,10,02,14.00
2018,07,03,10,03,14.00
2018,07,03,10,04,14.10
2018,07,03,10,05,14.10
2018,07,03,10,06,14.10
2018,07,03,10,07,14.10
2018,07,03,10,08,14.10
2018,07,03,10,09,14.10
2018,07,03,10,10,14.20
2018,07,03,10,11,14.20
2018,07,03,10,12,14.20
2018,07,03,10,13,14.20
2018,07,03,10,14,14.20
2018,07,03,10,15,14.10
2018,07,03,10,16,14.00
2018,07,03,10,17,14.00
2018,07,03,10,18,14.00
2018,07,03,10,19,14.00
2018,07,03,10,20,14.00
2018,07,03,10,21,14.10
2018,07,03,10,22,14.00
2018,07,03,10,23,13.90
2018,07,03,10,24,14.00
2018,07,03,10,25,14.00
2018,07,03,10,26,13.90
2018,07,03,10,27,13.90
2018,07,03,10,28,14.00
2018,07,03,10,29,14.00
2018,07,03,10,30,14.10
2018,07,03,10,31,14.10
2018,07,03,10,32,14.10
2018,07,03,10,33,14.10
2018,07,03,10,34,14.10
2018,07,03,10,35,14.10
2018,07,03,10,36,14.20
2018,07,03,10,37,14.20
2018,07,03,10,38,14.30
2018,07,03,10,39,14.30
2018,07,03,10,40,14.40
2018,07,03,10,41,14.50
2018,07,03,10,42,14.40
2018,07,03,10,43,14.40
2018,07,03,10,44,14.40
2018,07,03,10,45,14.30
2018,07,03,10,46,14.40
2018,07,03,10,47,14.40
2018,07,03,10,48,14.50
2018,07,03,10,49,14.60
2018,07,03,10,50,14.60
2018,07,03,10,51,14.60
2018,07,03,10,52,14.60
2018,07,03,10,53,14.50
2018,07,03,10,54,14.50
2018,07,03,10,55,14.50
2018,07,03,10,56,14.70
2018,07,03,10,57,14.80
2018,07,03,10,58,15.00
2018,07,03,10,59,15.20
2018,07,03,11,00,15.40
2018,07,03,11,01,15.60
2018,07,03,11,02,15.70
2018,07,03,11,03,15.70
2018,07,03,11,04,15.70
2018,07,03,11,05,15.70
2018,07,03,11,06,15.70
2018,07,03,11,07,15.80
2018,07,03,11,08,15.80
2018,07,03,11,09,15.90
2018,07,03,11,10,16.00
2018,07,03,11,11,16.00
2018,07,03,11,12,16.00
2018,07,03,11,13,16.00
2018,07,03,11,14,15.90
2018,07,03,11,15,15.80
2018,07,03,11,16,15.90
2018,07,03,11,17,16.00
2018,07,03,11,18,16.10
2018,07,03,11,19,16.20
2018,07,03,11,20,16.30
2018,07,03,11,21,16.30
2018,07,03,11,22,16.20
2018,07,03,11,23,16.20
2018,07,03,11,24,16.20
2018,07,03,11,25,16.20
2018,07,03,11,26,16.20
2018,07,03,11,27,16.10
2018,07,03,11,28,16.10
2018,07,03,11,29,16.20
2018,07,03,11,30,16.20
2018,07,03,11,31,16.20
2018,07,03,11,32,16.10
2018,07,03,11,33,16.00
2018,07,03,11,34,16.00
2018,07,03,11,35,15.90
2018,07,03,11,36,15.90
2018,07,03,11,37,15.90
2018,07,03,11,38,16.00
2018,07,03,11,39,16.10
2018,07,03,11,40,16.20
2018,07,03,11,41,16.30
2018,07,03,11,42,16.40
2018,07,03,11,43,16.40
2018,07,03,11,44,16.50
2018,07,03,11,45,16.40
2018,07,03,11,46,16.50
2018,07,03,11,47,16.40
2018,07,03,11,48,16.50
2018,07,03,11,49,16.50
2018,07,03,11,50,16.50
2018,07,03,11,51,16.40
2018,07,03,11,52,16.40
2018,07,03,11,53,16.40
2018,07,03,11,54,16.40
2018,07,03,11,55,16.40
2018,07,03,11,56,16.40
2018,07,03,11,57,16.40
2018,07,03,11,58,16.40
2018,07,03,11,59,16.40
2018,07,03,12,00,16.50
2018,07,03,12,01,16.50
2018,07,03,12,02,16.50
2018,07,03,12,03,16.50
2018,07,03,12,04,16.50
2018,07,03,12,05,16.40
2018,07,03,12,06,16.40
2018,07,03,12,07,16.30
2018,07,03,12,08,16.40
2018,07,03,12,09,16.40
2018,07,03,12,10,16.40
2018,07,03,12,11,16.50
2018,07,03,12,12,16.50
2018,07,03,12,13,16.50
2018,07,03,12,14,16.40
2018,07,03,12,15,16.40
2018,07,03,12,16,16.50
2018,07,03,12,17,16.50
2018,07,03,12,18,16.60
2018,07,03,12,19,16.60
2018,07,03,12,20,16.80
2018,07,03,12,21,16.90
2018,07,03,12,22,17.10
2018,07,03,12,23,17.10
2018,07,03,12,24,17.10
2018,07,03,12,25,17.10
2018,07,03,12,26,17.10
2018,07,03,12,27,17.10
2018,07,03,12,28,17.00
2018,07,03,12,29,17.00
2018,07,03,12,30,16.90
2018,07,03,12,31,16.80
2018,07,03,12,32,16.70
2018,07,03,12,33,16.60
2018,07,03,12,34,16.60
2018,07,03,12,35,16.50
2018,07,03,12,36,16.40
2018,07,03,12,37,16.40
2018,07,03,12,38,16.40
2018,07,03,12,39,16.40
2018,07,03,12,40,16.40
2018,07,03,12,41,16.40
2018,07,03,12,42,16.30
2018,07,03,12,43,16.30
2018,07,03,12,44,16.40
2018,07,03,12,45,16.40
2018,07,03,12,46,16.50
2018,07,03,12,47,16.60
2018,07,03,12,48,16.60
2018,07,03,12,49,16.60
2018,07,03,12,50,16.60
2018,07,03,12,51,16.60
2018,07,03,12,52,16.60
2018,07,03,12,53,16.60
2018,07,03,12,54,16.60
2018,07,03,12,55,16.70
2018,07,03,12,56,16.70
2018,07,03,12,57,16.70
2018,07,03,12,58,16.80
2018,07,03,12,59,16.80
2018,07,03,13,00,16.90
2018,07,03,13,01,16.90
2018,07,03,13,02,16.90
2018,07,03,13,03,17.00
2018,07,03,13,04,17.10
2018,07,03,13,05,17.20
2018,07,03,13,06,17.20
2018,07,03,13,07,17.20
2018,07,03,13,08,17.10
2018,07,03,13,09,17.00
2018,07,03,13,10,17.10
2018,07,03,13,11,17.20
2018,07,03,13,12,17.30
2018,07,03,13,13,17.40
2018,07,03,13,14,17.50
2018,07,03,13,15,17.50
2018,07,03,13,16,17.40
2018,07,03,13,17,17.20
2018,07,03,13,18,17.00
2018,07,03,13,19,16.90
2018,07,03,13,20,16.90
2018,07,03,13,21,16.80
2018,07,03,13,22,16.80
2018,07,03,13,23,16.80
2018,07,03,13,24,16.70
2018,07,03,13,25,16.70
2018,07,03,13,26,16.80
2018,07,03,13,27,16.80
2018,07,03,13,28,17.00
2018,07,03,13,29,17.10
2018,07,03,13,30,17.00
2018,07,03,13,31,16.90
2018,07,03,13,32,16.90
2018,07,03,13,33,16.80
2018,07,03,13,34,16.80
2018,07,03,13,35,16.80
2018,07,03,13,36,16.90
2018,07,03,13,37,17.00
2018,07,03,13,38,17.00
2018,07,03,13,39,17.10
2018,07,03,13,40,17.20
2018,07,03,13,41,17.20
2018,07,03,13,42,17.20
2018,07,03,13,43,17.20
2018,07,03,13,44,17.00
2018,07,03,13,45,16.90
2018,07,03,13,46,16.80
2018,07,03,13,47,16.80
2018,07,03,13,48,16.80
2018,07,03,13,49,16.90
2018,07,03,13,50,17.00
2018,07,03,13,51,17.00
2018,07,03,13,52,16.80
2018,07,03,13,53,16.80
2018,07,03,13,54,16.80
2018,07,03,13,55,16.80
2018,07,03,13,56,16.90
2018,07,03,13,57,17.00
2018,07,03,13,58,17.10
2018,07,03,13,59,17.30
2018,07,03,14,00,17.30
2018,07,03,14,01,17.50
2018,07,03,14,02,17.70
2018,07,03,14,03,17.70
2018,07,03,14,04,17.70
2018,07,03,14,05,17.80
2018,07,03,14,06,17.90
2018,07,03,14,07,17.90
2018,07,03,14,08,17.90
2018,07,03,14,09,17.90
2018,07,03,14,10,17.80
2018,07,03,14,11,17.70
2018,07,03,14,12,17.50
2018,07,03,14,13,17.40
2018,07,03,14,14,17.30
2018,07,03,14,15,17.30
2018,07,03,14,16,17.30
2018,07,03,14,17,17.30
2018,07,03,14,18,17.30
2018,07,03,14,19,17.20
2018,07,03,14,20,17.30
2018,07,03,14,21,17.40
2018,07,03,14,22,17.50
2018,07,03,14,23,17.60
2018,07,03,14,24,17.60
2018,07,03,14,25,17.70
2018,07,03,14,26,17.80
2018,07,03,14,27,17.90
2018,07,03,14,28,18.00
2018,07,03,14,29,18.20
2018,07,03,14,30,18.30
2018,07,03,14,31,18.30
2018,07,03,14,32,18.30
2018,07,03,14,33,18.40
2018,07,03,14,34,18.50
2018,07,03,14,35,18.60
2018,07,03,14,36,18.70
2018,07,03,14,37,18.70
2018,07,03,14,38,18.70
2018,07,03,14,39,18.40
2018,07,03,14,40,18.20
2018,07,03,14,41,18.10
2018,07,03,14,42,17.90
2018,07,03,14,43,17.80
2018,07,03,14,44,17.80
2018,07,03,14,45,17.90
2018,07,03,14,46,17.90
2018,07,03,14,47,17.80
2018,07,03,14,48,17.70
2018,07,03,14,49,17.60
2018,07,03,14,50,17.50
2018,07,03,14,51,17.50
2018,07,03,14,52,17.60
2018,07,03,14,53,17.60
2018,07,03,14,54,17.70
2018,07,03,14,55,17.80
2018,07,03,14,56,17.90
2018,07,03,14,57,17.90
2018,07,03,14,58,18.00
2018,07,03,14,59,18.00
2018,07,03,15,00,18.00
2018,07,03,15,01,18.00
2018,07,03,15,02,18.00
2018,07,03,15,03,18.10
2018,07,03,15,04,18.10
2018,07,03,15,05,18.20
2018,07,03,15,06,18.20
2018,07,03,15,07,18.30
2018,07,03,15,08,18.40
2018,07,03,15,09,18.40
2018,07,03,15,10,18.40
2018,07,03,15,11,18.30
2018,07,03,15,12,18.20
2018,07,03,15,13,18.00
2018,07,03,15,14,17.80
2018,07,03,15,15,17.80
2018,07,03,15,16,17.80
2018,07,03,15,17,18.00
2018,07,03,15,18,18.10
2018,07,03,15,19,18.10
2018,07,03,15,20,18.10
2018,07,03,15,21,18.10
2018,07,03,15,22,18.20
2018,07,03,15,23,18.30
2018,07,03,15,24,18.40
2018,07,03,15,25,18.30
2018,07,03,15,26,18.30
2018,07,03,15,27,18.40
2018,07,03,15,28,18.50
2018,07,03,15,29,18.60
2018,07,03,15,30,18.60
2018,07,03,15,31,18.60
2018,07,03,15,32,18.70
2018,07,03,15,33,18.70
2018,07,03,15,34,18.80
2018,07,03,15,35,18.90
2018,07,03,15,36,19.00
2018,07,03,15,37,19.10
2018,07,03,15,38,19.20
2018,07,03,15,39,19.30
2018,07,03,15,40,19.20
2018,07,03,15,41,19.10
2018,07,03,15,42,18.90
2018,07,03,15,43,18.80
2018,07,03,15,44,18.70
2018,07,03,15,45,18.70
2018,07,03,15,46,18.80
2018,07,03,15,47,18.90
2018,07,03,15,48,19.00
2018,07,03,15,49,19.10
2018,07,03,15,50,19.20
2018,07,03,15,51,19.20
2018,07,03,15,52,19.20
2018,07,03,15,53,19.20
2018,07,03,15,54,19.20
2018,07,03,15,55,19.10
2018,07,03,15,56,19.00
2018,07,03,15,57,18.80
2018,07,03,15,58,18.70
2018,07,03,15,59,18.60
2018,07,03,16,00,18.40
2018,07,03,16,01,18.30
2018,07,03,16,02,18.30
2018,07,03,16,03,18.30
2018,07,03,16,04,18.30
2018,07,03,16,05,18.20
2018,07,03,16,06,18.00
2018,07,03,16,07,17.90
2018,07,03,16,08,17.90
2018,07,03,16,09,17.90
2018,07,03,16,10,17.90
2018,07,03,16,11,17.80
2018,07,03,16,12,17.60
2018,07,03,16,13,17.50
2018,07,03,16,14,17.40
2018,07,03,16,15,17.30
2018,07,03,16,16,17.20
2018,07,03,16,17,17.20
2018,07,03,16,18,17.10
2018,07,03,16,19,17.20
2018,07,03,16,20,17.20
2018,07,03,16,21,17.20
2018,07,03,16,22,17.20
2018,07,03,16,23,17.30
2018,07,03,16,24,17.30
2018,07,03,16,25,17.30
2018,07,03,16,26,17.30
2018,07,03,16,27,17.30
2018,07,03,16,28,17.30
2018,07,03,16,29,17.30
2018,07,03,16,30,17.30
2018,07,03,16,31,17.30
2018,07,03,16,32,17.30
2018,07,03,16,33,17.40
2018,07,03,16,34,17.40
2018,07,03,16,35,17.40
2018,07,03,16,36,17.40
2018,07,03,16,37,17.30
2018,07,03,16,38,17.30
2018,07,03,16,39,17.40
2018,07,03,16,40,17.40
2018,07,03,16,41,17.50
2018,07,03,16,42,17.60
2018,07,03,16,43,17.60
2018,07,03,16,44,17.60
2018,07,03,16,45,17.60
2018,07,03,16,46,17.60
2018,07,03,16,47,17.70
2018,07,03,16,48,17.70
2018,07,03,16,49,17.80
2018,07,03,16,50,17.80
2018,07,03,16,51,17.80
2018,07,03,16,52,17.80
2018,07,03,16,53,17.90
2018,07,03,16,54,18.00
2018,07,03,16,55,18.10
2018,07,03,16,56,18.20
2018,07,03,16,57,18.20
2018,07,03,16,58,18.10
2018,07,03,16,59,18.10
2018,07,03,17,00,18.10
2018,07,03,17,01,18.20
2018,07,03,17,02,18.30
2018,07,03,17,03,18.30
2018,07,03,17,04,18.20
2018,07,03,17,05,18.10
2018,07,03,17,06,18.00
2018,07,03,17,07,18.00
2018,07,03,17,08,18.00
2018,07,03,17,09,18.00
2018,07,03,17,10,18.10
2018,07,03,17,11,18.20
2018,07,03,17,12,18.20
2018,07,03,17,13,18.20
2018,07,03,17,14,18.10
2018,07,03,17,15,18.10
2018,07,03,17,16,18.10
2018,07,03,17,17,18.00
2018,07,03,17,18,18.00
2018,07,03,17,19,18.00
2018,07,03,17,20,18.10
2018,07,03,17,21,18.20
2018,07,03,17,22,18.20
2018,07,03,17,23,18.20
2018,07,03,17,24,18.30
2018,07,03,17,25,18.30
2018,07,03,17,26,18.40
2018,07,03,17,27,18.50
2018,07,03,17,28,18.50
2018,07,03,17,29,18.60
2018,07,03,17,30,18.60
2018,07,03,17,31,18.70
2018,07,03,17,32,18.70
2018,07,03,17,33,18.70
2018,07,03,17,34,18.70
2018,07,03,17,35,18.60
2018,07,03,17,36,18.50